• In Netherlands
  • List of Countries
  • For 7 days
  • Water Temperature
  • Satellite Maps
  • Weather Map
  • Weather Widgets
  • user-avatar
    Login

    Hourly Weather Kowalskie

    Today, 15 October, Monday

    Time Temperature Precipitation Wind Pressure Humidity
    00:00 +14°C° 0 mm 4 mps 755 mmHg 58%
    01:00 +14°C° 0 mm 4 mps 755 mmHg 59%
    02:00 +14°C° 0 mm 4 mps 755 mmHg 57%
    03:00 +13°C° 0 mm 4 mps 755 mmHg 56%
    04:00 +13°C° 0 mm 4 mps 755 mmHg 55%
    05:00 +13°C° 0 mm 4 mps 755 mmHg 56%
    06:00 +13°C° 0 mm 4 mps 755 mmHg 58%
    07:00 +13°C° 0 mm 4 mps 755 mmHg 59%
    08:00 +15°C° 0 mm 4 mps 755 mmHg 53%
    09:00 +16°C° 0 mm 5 mps 755 mmHg 46%
    10:00 +19°C° 0 mm 5 mps 756 mmHg 40%
    11:00 +20°C° 0 mm 5 mps 755 mmHg 37%
    12:00 +21°C° 0 mm 5 mps 755 mmHg 35%
    13:00 +23°C° 0 mm 5 mps 755 mmHg 32%
    14:00 +22°C° 0 mm 4 mps 755 mmHg 35%
    15:00 +21°C° 0 mm 4 mps 755 mmHg 38%
    16:00 +21°C° 0 mm 3 mps 755 mmHg 42%
    17:00 +19°C° 0 mm 3 mps 755 mmHg 44%
    18:00 +18°C° 0 mm 4 mps 755 mmHg 47%
    19:00 +17°C° 0 mm 4 mps 755 mmHg 49%
    20:00 +17°C° 0 mm 4 mps 755 mmHg 50%
    21:00 +15°C° 0 mm 4 mps 755 mmHg 52%
    22:00 +16°C° 0 mm 3 mps 755 mmHg 53%
    23:00 +14°C° 0 mm 3 mps 755 mmHg 53%

    Tomorrow, 16 October, Tuesday

    Time Temperature Precipitation Wind Pressure Humidity
    00:00 +14°C° 0 mm 3 mps 755 mmHg 54%
    01:00 +13°C° 0 mm 3 mps 755 mmHg 54%
    02:00 +13°C° 0 mm 3 mps 755 mmHg 55%
    03:00 +13°C° 0 mm 3 mps 755 mmHg 55%
    04:00 +12°C° 0 mm 3 mps 755 mmHg 55%
    05:00 +12°C° 0 mm 3 mps 755 mmHg 56%
    06:00 +12°C° 0 mm 3 mps 755 mmHg 57%
    07:00 +12°C° 0 mm 3 mps 755 mmHg 58%
    08:00 +14°C° 0 mm 3 mps 755 mmHg 53%
    09:00 +17°C° 0 mm 3 mps 756 mmHg 48%
    10:00 +18°C° 0 mm 3 mps 756 mmHg 43%
    11:00 +19°C° 0 mm 3 mps 756 mmHg 42%
    12:00 +20°C° 0 mm 4 mps 755 mmHg 40%
    13:00 +21°C° 0 mm 4 mps 755 mmHg 38%
    14:00 +21°C° 0 mm 3 mps 755 mmHg 41%
    15:00 +20°C° 0 mm 3 mps 755 mmHg 44%
    16:00 +20°C° 0 mm 2 mps 755 mmHg 47%
    17:00 +19°C° 0 mm 2 mps 755 mmHg 50%
    18:00 +17°C° 0 mm 2 mps 755 mmHg 52%
    19:00 +16°C° 0 mm 2 mps 756 mmHg 55%
    20:00 +16°C° 0 mm 2 mps 756 mmHg 56%
    21:00 +14°C° 0 mm 3 mps 756 mmHg 58%
    22:00 +14°C° 0 mm 3 mps 756 mmHg 59%
    23:00 +14°C° 0 mm 3 mps 756 mmHg 60%

    Day after tomorrow, 17 October, Wednesday

    Time Temperature Precipitation Wind Pressure Humidity
    00:00 +14°C° 0 mm 2 mps 756 mmHg 62%
    01:00 +14°C° 0 mm 2 mps 756 mmHg 63%
    02:00 +14°C° 0 mm 2 mps 756 mmHg 65%
    03:00 +13°C° 0 mm 2 mps 756 mmHg 66%
    04:00 +13°C° 0 mm 2 mps 756 mmHg 68%
    05:00 +13°C° 0 mm 2 mps 756 mmHg 68%
    06:00 +12°C° 0 mm 2 mps 756 mmHg 69%
    07:00 +12°C° 0 mm 2 mps 756 mmHg 70%
    08:00 +14°C° 0 mm 2 mps 756 mmHg 64%
    09:00 +16°C° 0 mm 2 mps 756 mmHg 58%
    10:00 +18°C° 0 mm 2 mps 756 mmHg 52%
    11:00 +19°C° 0 mm 2 mps 756 mmHg 50%
    12:00 +20°C° 0 mm 2 mps 756 mmHg 47%
    13:00 +21°C° 0 mm 2 mps 756 mmHg 44%
    14:00 +20°C° 0 mm 2 mps 756 mmHg 47%
    15:00 +20°C° 0 mm 2 mps 755 mmHg 50%
    16:00 +20°C° 0 mm 1 mps 755 mmHg 52%
    17:00 +19°C° 0 mm 1 mps 755 mmHg 55%
    18:00 +18°C° 0 mm 1 mps 755 mmHg 58%
    19:00 +16°C° 0 mm 1 mps 755 mmHg 61%
    20:00 +16°C° 0 mm 1 mps 756 mmHg 63%
    21:00 +15°C° 0 mm 1 mps 756 mmHg 66%
    22:00 +15°C° 0 mm 2 mps 756 mmHg 68%
    23:00 +14°C° 0 mm 1 mps 756 mmHg 70%

    18 October, Thursday

    Time Temperature Precipitation Wind Pressure Humidity
    00:00 +14°C° 0 mm 1 mps 756 mmHg 73%
    01:00 +14°C° 0 mm 1 mps 756 mmHg 75%
    02:00 +13°C° 0 mm 1 mps 756 mmHg 77%
    03:00 +13°C° 0 mm 1 mps 756 mmHg 78%
    04:00 +12°C° 0 mm 0 mps 755 mmHg 80%
    05:00 +12°C° 0 mm 0 mps 755 mmHg 80%
    06:00 +12°C° 0 mm 0 mps 755 mmHg 80%
    07:00 +12°C° 0 mm 0 mps 756 mmHg 80%
    08:00 +14°C° 0 mm 0 mps 756 mmHg 74%
    09:00 +15°C° 0 mm 0 mps 756 mmHg 67%
    10:00 +17°C° 0 mm 0 mps 756 mmHg 60%
    11:00 +20°C° 0 mm 1 mps 756 mmHg 57%
    12:00 +21°C° 0 mm 1 mps 756 mmHg 54%
    13:00 +22°C° 0 mm 1 mps 756 mmHg 51%
    14:00 +21°C° 0 mm 1 mps 755 mmHg 53%
    15:00 +21°C° 0 mm 1 mps 755 mmHg 56%
    16:00 +20°C° 0 mm 1 mps 755 mmHg 58%
    17:00 +19°C° 0 mm 1 mps 755 mmHg 62%
    18:00 +18°C° 0 mm 1 mps 756 mmHg 67%
    19:00 +16°C° 0 mm 1 mps 756 mmHg 71%
    20:00 +15°C° 0 mm 1 mps 756 mmHg 73%
    21:00 +15°C° 0 mm 1 mps 756 mmHg 76%
    22:00 +14°C° 0 mm 1 mps 756 mmHg 78%
    23:00 +14°C° 0 mm 2 mps 757 mmHg 80%

    19 October, Friday

    Time Temperature Precipitation Wind Pressure Humidity
    00:00 +13°C° 0 mm 2 mps 757 mmHg 82%
    01:00 +13°C° 0 mm 2 mps 757 mmHg 84%
    02:00 +12°C° 0 mm 2 mps 757 mmHg 85%
    03:00 +12°C° 0 mm 2 mps 757 mmHg 87%
    04:00 +12°C° 0 mm 2 mps 757 mmHg 88%
    05:00 +10°C° 0 mm 2 mps 757 mmHg 89%
    06:00 +10°C° 0 mm 2 mps 757 mmHg 90%
    07:00 +10°C° 0 mm 2 mps 757 mmHg 91%
    08:00 +12°C° 0 mm 2 mps 757 mmHg 85%
    09:00 +14°C° 0 mm 2 mps 757 mmHg 79%
    10:00 +15°C° 0 mm 2 mps 758 mmHg 73%
    11:00 +16°C° 0 mm 3 mps 758 mmHg 71%
    12:00 +17°C° 0 mm 3 mps 757 mmHg 69%
    13:00 +17°C° 0 mm 3 mps 757 mmHg 66%
    14:00 +17°C° 0 mm 3 mps 757 mmHg 66%
    15:00 +17°C° 0 mm 2 mps 757 mmHg 66%
    16:00 +16°C° 0 mm 2 mps 757 mmHg 66%
    17:00 +15°C° 0 mm 2 mps 757 mmHg 67%
    18:00 +14°C° 0 mm 2 mps 758 mmHg 69%
    19:00 +13°C° 0 mm 2 mps 758 mmHg 71%
    20:00 +12°C° 0 mm 2 mps 758 mmHg 74%
    21:00 +10°C° 0 mm 2 mps 758 mmHg 77%
    22:00 +9°C° 0 mm 2 mps 758 mmHg 80%
    23:00 +8°C° 0 mm 2 mps 758 mmHg 83%

    20 October, Saturday

    Time Temperature Precipitation Wind Pressure Humidity
    00:00 +8°C° 0 mm 2 mps 758 mmHg 86%
    01:00 +7°C° 0 mm 2 mps 758 mmHg 89%
    02:00 +7°C° 0 mm 2 mps 758 mmHg 90%
    03:00 +6°C° 0 mm 2 mps 759 mmHg 91%
    04:00 +6°C° 0 mm 2 mps 759 mmHg 92%
    05:00 +4°C° 0 mm 3 mps 759 mmHg 93%
    06:00 +4°C° 0 mm 3 mps 759 mmHg 94%
    07:00 +4°C° 0 mm 3 mps 760 mmHg 94%
    08:00 +7°C° 0 mm 3 mps 760 mmHg 88%
    09:00 +8°C° 0 mm 3 mps 760 mmHg 81%
    10:00 +10°C° 0 mm 3 mps 760 mmHg 75%
    11:00 +11°C° 0 mm 4 mps 760 mmHg 70%
    12:00 +11°C° 0 mm 4 mps 760 mmHg 65%
    13:00 +12°C° 0 mm 5 mps 760 mmHg 60%
    14:00 +12°C° 0 mm 4 mps 760 mmHg 61%
    15:00 +11°C° 0 mm 4 mps 760 mmHg 62%
    16:00 +11°C° 0 mm 4 mps 760 mmHg 62%
    17:00 +10°C° 0 mm 3 mps 761 mmHg 66%
    18:00 +9°C° 0 mm 3 mps 761 mmHg 69%
    19:00 +8°C° 0 mm 3 mps 761 mmHg 73%
    20:00 +8°C° 0 mm 3 mps 761 mmHg 75%
    21:00 +8°C° 0 mm 3 mps 762 mmHg 77%
    22:00 +8°C° 0 mm 3 mps 762 mmHg 79%
    23:00 +7°C° 0 mm 3 mps 762 mmHg 80%
    Show more